Regional Weather Roundup
Issued by NWS Wilmington, NC

Home | Current Version | Previous Version | Text Only | Print | Product List | Glossary On
Versions: 1 2 3 4 5 6 7 8 9 10 11 12 13 14 15 16 17 18 19 20 21 22 23 24 25 26 27 28 29 30 31 32 33 34 35 36 37 38 39 40 41 42 43 44 45 46 47 48 49 50
000
ASUS42 KILM 110413
RWRILM
RWRILM
REGIONAL HOURLY WEATHER ROUNDUP
NATIONAL WEATHER SERVICE WILMINGTON NC
1100 PM EST SUN DEC 10 2017

NOTE: "FAIR" INDICATES FEW OR NO CLOUDS BELOW 12,000 FEET WITH NO
SIGNIFICANT WEATHER AND/OR OBSTRUCTIONS TO VISIBILITY.

...............WFO WILMINGTON COUNTY WARNING AREA...............

......COASTAL NC AND SC COUNTIES......

CITY           SKY/WX    TMP DP  RH WIND       PRES   REMARKS
WILMINGTON     CLEAR     37  29  72 SW6       30.21S WCI  32
N MYRTLE BEACH CLEAR     38  30  73 SW5       30.22R WCI  34
MYRTLE BEACH   CLEAR     38  31  76 SW6       30.25R WCI  33

......INLAND NC AND SC COUNTIES.......

CITY           SKY/WX    TMP DP  RH WIND       PRES   REMARKS
LUMBERTON      CLEAR     34  27  75 SW5       30.19S WCI  30
ELIZABETHTOWN  NOT AVBL
WHITEVILLE     CLEAR     32  29  90 CALM      30.21S
FLORENCE       CLEAR     34  28  79 S7        30.21S WCI  28
DARLINGTON     CLEAR     33  28  81 S5        30.20S WCI  29
KINGSTREE      FAIR      32  30  93 CALM      30.23R
HARTSVILLE     FAIR      30  27  86 SW5       30.18F WCI  25
BENNETTSVILLE  FAIR      36  32  87 CALM      30.19F
CONWAY         FAIR      32  32 100 CALM      30.23S
GEORGETOWN     FAIR      32  32 100 CALM      30.25R
MARION         FAIR      34  28  80 S6        30.22S WCI  29

....................REST OF NORTH CAROLINA......................

.........EASTERN NC.........

CITY           SKY/WX    TMP DP  RH WIND       PRES   REMARKS
CAPE HATTERAS  CLEAR     41  31  67 W7        30.19S
JACKSONVILLE   CLEAR     27  25  92 S5        30.20F WCI  22
MOREHEAD CITY  CLEAR     38  29  70 W7        30.20S WCI  33
KENANSVILLE    CLEAR     28  28 100 CALM      30.19F FOG
NEW BERN       CLEAR     30  29  96 S5        30.21S WCI  25
ELIZABETH CITY CLEAR     34  30  85 SW5       30.16F WCI  30

.........CENTRAL NC.........

CITY           SKY/WX    TMP DP  RH WIND       PRES   REMARKS
RALEIGH DURHAM CLEAR     32  25  75 SW6       30.14F WCI  26
ROCKY MOUNT    CLEAR     28  27  96 S3        30.16F
ROANOKE RAPIDS NOT AVBL
FAYETTEVILLE   CLEAR     34  27  75 S7        30.17F WCI  28
HOFFMAN        CLEAR     27  25  93 SE5       30.15F WCI  21

.........WESTERN NC.........

CITY           SKY/WX    TMP DP  RH WIND       PRES   REMARKS
CHARLOTTE      CLEAR     34  24  67 S6        30.14S WCI  29
GREENSBORO     CLEAR     32  23  69 SW7       30.10S WCI  26
HICKORY        NOT AVBL
BOONE          NOT AVBL
ASHEVILLE      NOT AVBL

.....................REST OF SOUTH CAROLINA.....................

.........EASTERN SC.........

CITY           SKY/WX    TMP DP  RH WIND       PRES   REMARKS
CHARLESTON     CLEAR     37  32  82 W5        30.25R WCI  33
BEAUFORT MCAS  CLEAR     35  31  85 SW6       30.26R WCI  30
HILTON HEAD    CLEAR     36  34  93 SW5       30.27R WCI  32

.........CENTRAL SC.........

CITY           SKY/WX    TMP DP  RH WIND       PRES   REMARKS
COLUMBIA       CLEAR     32  28  85 CALM      30.21S
ORANGEBURG     CLEAR     34  28  79 SW5       30.23R WCI  30
SUMTER SHAW    CLEAR     34  27  76 SW6       30.19R WCI  29

.........WESTERN SC.........

CITY           SKY/WX    TMP DP  RH WIND       PRES   REMARKS
GREENVILLE     NOT AVBL
ROCK HILL      CLEAR     30  24  78 SW8       30.15S WCI  22
ANDERSON       CLEAR     38  25  59 SW15G24   30.17S WCI  29
CLEMSON        NOT AVBL
GREENWOOD      CLEAR     35  24  64 SW12      30.19F WCI  27


...................COASTAL AND OFFSHORE REPORTS..................

................LOCAL PIERS AND NC RESERVE................


STATION/POSITION TIME  SKY/WX   TEMP    WIND        PRES    VSBY
                                AIR SEA DIR/SP/G
                 (UTC)          (F)     (DEG/KT/KT) (MB)    (MI)
JOHNY MRCER PIER 0348            41 57  260/  5/  7 1023.1R
NC RESRV MASNBRO 0245            36        CALM     1022.0
OCEAN CREST PIER NOT AVBL
SPRINGMAID  PIER 0348                               1026.7R


................COASTAL AND OFFSHORE BUOYS................


STATION/POSITION TIME  SKY/WX   TEMP    WIND        PRES    VSBY
                                AIR SEA DIR/SP/G
                 (UTC)          (F)     (DEG/KT/KT) (MB)    (MI)
DIMNDSHOAL 41025 0350            49 75  270/ 14/ 19 1022.3S
WVE H/P(F/S)=  5/ 9 SWL H/P/D(F/S/D)=  3/ 80/ 9

CAPE LOOKOUT     0400                   260/  9/ 13 1022.7S
ONSLOW BAY 41036 NOT AVBL
ONSLOW BAY 41064 0308            50 67  300/ 12/ 17 1023.0R
ONSLOW BAY 41159 0400               67                N/A
WVE H/P(F/S)=  3/ 7

MASNBO INL 41110 0359               58                N/A
WVE H/P(F/S)=  2/ 9

WILM HARBR 41108 0400               56                N/A
WVE H/P(F/S)=  3/ 4

27SE WRITB 41037 0308            50 66  260/ 14/ 21 1022.7F
FRYING PAN 41013 0350            52     260/ 14/ 19 1022.8F
WVE H/P(F/S)=  3/ 6 SWL H/P/D(F/S/D)=  2/110/ 8

SUNST NRSH 41024 0308            48     260/ 12/ 17 1022.7F
CAPRS NRSH 41029 0308            45     260/ 16/ 21 1023.7F
EDISTO     41004 0350               73  270/ 12/ 19 1023.3F


..........OFFSHORE BUOYS BEYOND 100 NM OFFSHORE...........
.....IN A TRIANGLE---HAT TO BERMUDA TO BAHAMAS TO HAT.....


STATION/POSITION TIME  SKY/WX   TEMP    WIND        PRES    VSBY
                                AIR SEA DIR/SP/G
                 (UTC)          (F)     (DEG/KT/KT) (MB)    (MI)
150E HAT   41001 NOT AVBL
W BERMUDA  41048 0350            65 75  320/ 10/ 16 1020.0F
WVE H/P(F/S)= 10/ 9 SWL H/P/D(F/S/D)= 10/280/ 9

ATLANTIC S 41049 0350            76 78  150/  8/ 10 1019.4F
WVE H/P(F/S)=  4/12 SWL H/P/D(F/S/D)=  3/ 40/12

E BAHAMAS  41046 0400            79 80  130/  2/  4 1017.8
NE BAHAMAS 41047 0350            65      50/ 14/ 21 1019.8F
WVE H/P(F/S)=  8/ 9 SWL H/P/D(F/S/D)=  8/320/ 9

120E CANVRL41010 NOT AVBL

END



USA.gov is the U.S. government's official web portal to all federal, state and local government web resources and services.